Vorticity
14 10 10 8 4 4 9 13 1 14 6 19 11 5 5 5 3 6 6 8 6 -0 10 11 10 6 1 8 11 7 8 14 14 8 3 8 14 20 15 14 16 10 12 19
7 13 10 7 1 11 -1 0 6 6 2 11 5 4 4 3 3 6 12 5 4 8 8 13 13 4 2 10 10 12 18 19 12 2 10 14 13 19 17 11 14 8 11 17
9 3 3 -15 26 7 4 2 7 5 8 7 1 5 5 -1 7 18 7 11 9 10 14 16 13 2 7 9 16 21 19 16 11 -3 20 14 18 21 16 13 13 12 9 14
9 5 4 13 4 5 8 8 3 4 5 6 8 7 -4 18 23 9 6 1 12 16 17 16 12 11 14 15 19 14 11 9 10 8 11 7 6 22 17 13 13 12 9 12
0 3 9 11 3 7 4 10 -1 7 9 5 7 6 8 19 3 9 8 5 16 21 17 12 6 11 9 7 9 12 11 10 13 11 2 7 10 12 15 23 13 15 7 11
4 6 2 11 0 6 6 1 7 23 2 8 11 1 18 12 11 9 -4 24 15 16 11 10 10 12 9 8 4 7 17 11 11 11 6 13 15 17 18 17 23 14 11 16
-0 7 6 -1 15 -1 0 18 1 8 20 4 9 24 13 6 5 12 24 11 -4 4 15 20 17 13 14 11 13 12 5 8 2 -0 6 14 18 30 12 19 23 20 21 14
4 5 -4 24 -1 -1 20 -1 8 28 3 4 -0 19 5 2 7 1 -1 1 8 21 15 12 15 18 11 -1 8 4 12 13 4 11 10 7 10 20 9 20 19 18 14 9
-7 10 12 5 34 29 12 8 31 14 -27 23 22 15 -9 25 17 6 20 15 21 -1 15 8 7 15 11 10 18 9 7 8 6 9 10 13 11 19 23 19 17 23 10 9
16 4 20 35 8 -14 -0 18 49 -44 71 -7 10 23 -1 22 -8 3 2 3 15 14 16 14 15 18 13 11 8 3 10 9 7 5 8 12 8 4 16 16 12 15 8 9
14 15 14 -4 -14 -20 -17 34 -35 21 -7 -9 -6 1 -23 17 20 26 15 25 21 33 12 18 14 7 5 12 9 10 11 8 8 5 8 11 7 5 13 20 21 16 20 19
5 26 -4 -11 -0 27 35 15 36 19 -12 7 -23 14 15 -4 18 14 25 27 1 6 4 9 2 3 11 13 11 16 8 10 8 7 11 8 7 14 17 20 19 19 16 19
11 16 35 40 40 35 26 -15 2 -11 9 7 -7 -4 42 41 33 33 17 -16 -5 4 17 14 12 7 10 18 11 9 7 5 8 11 8 11 13 17 20 17 20 18 18 16
33 27 0 -16 -12 13 -8 -5 3 8 2 5 34 44 3 19 -2 1 -1 -5 11 19 11 13 11 13 13 11 7 7 6 9 11 13 14 15 16 18 17 18 17 16 18 14
21 12 24 39 36 30 28 26 26 14 11 8 11 8 -2 20 -1 -15 21 17 14 16 15 13 15 12 9 10 9 8 11 14 15 17 19 21 20 20 19 19 18 16 16 16
7 -6 -8 2 11 13 12 8 20 30 24 26 15 29 14 6 11 11 16 15 17 14 9 7 12 10 9 9 12 16 20 23 22 22 21 19 17 17 18 19 19 19 17 17
24 27 29 23 19 22 22 23 22 18 27 32 19 17 19 13 26 20 13 10 8 7 10 9 9 10 13 19 23 23 21 18 15 16 18 20 20 20 19 19 19 20 17 19
20 17 12 14 12 9 17 16 7 7 8 7 14 26 25 13 9 9 11 9 10 10 8 10 14 20 24 21 16 15 17 20 21 22 22 21 21 20 20 20 19 20 19 20
3 22 34 20 11 19 28 26 24 27 24 15 11 9 8 12 11 8 7 9 9 11 14 21 22 21 17 16 20 22 21 19 17 18 17 17 17 18 19 19 19 19 20 21
17 19 19 19 18 16 13 12 12 11 8 9 11 10 8 7 8 9 10 12 13 17 20 20 20 18 20 20 19 16 15 18 20 19 19 20 20 19 17 18 19 19 21 23
22 23 16 11 14 13 6 7 12 12 8 7 7 7 9 10 11 12 14 15 19 21 23 23 19 18 19 18 18 19 19 16 23 25 25 24 23 23 19 17 19 19 22 23
9 12 9 8 9 14 12 9 7 5 3 4 9 12 13 14 15 16 16 19 22 22 21 16 14 17 16 17 18 19 20 21 19 21 23 23 23 24 20 16 18 20 22 25
11 12 12 14 11 7 4 4 3 2 8 15 16 15 15 15 16 18 19 22 21 19 16 12 13 15 18 21 20 23 19 17 18 22 21 22 24 26 20 16 18 20 24 25
12 14 13 8 6 6 5 4 8 17 18 16 15 14 14 16 18 18 19 20 18 15 13 11 12 17 21 23 23 21 18 19 22 22 20 22 25 24 18 17 18 21 26 25
11 10 9 10 7 5 11 19 19 16 13 12 13 14 15 16 16 17 17 18 15 13 12 11 15 20 24 25 21 20 20 21 21 21 20 23 24 21 18 16 20 23 25 30
10 8 6 7 15 20 16 14 11 11 12 12 14 15 15 15 15 15 16 16 14 13 12 12 20 23 25 24 21 20 21 21 20 20 21 23 22 19 16 18 22 26 29 23
8 11 16 16 13 12 10 10 11 10 9 9 9 13 15 14 14 14 14 14 14 12 11 16 23 25 25 21 20 21 21 20 19 20 20 21 19 17 17 21 25 28 29 11
Height
5606 5604 5602 5603 5605 5602 5593 5598 5590 5601 5591 5603 5597 5582 5585 5583 5582 5581 5580 5577 5571 5569 5566 5562 5559 5555 5552 5548 5545 5542 5538 5534 5532 5529 5526 5524 5522 5522 5522 5522 5522 5522 5523 5523
5589 5589 5586 5586 5593 5584 5586 5584 5576 5581 5578 5588 5576 5574 5567 5565 5561 5557 5558 5559 5554 5549 5547 5544 5539 5535 5532 5529 5526 5523 5520 5516 5514 5511 5508 5506 5504 5503 5503 5504 5504 5504 5505 5505
5571 5571 5567 5571 5584 5580 5574 5569 5568 5559 5568 5568 5560 5552 5549 5550 5545 5540 5535 5535 5539 5536 5529 5525 5520 5516 5513 5510 5507 5505 5502 5499 5496 5493 5491 5489 5487 5485 5484 5485 5486 5486 5486 5487
5552 5551 5542 5563 5565 5563 5557 5555 5547 5544 5549 5549 5540 5532 5532 5535 5524 5522 5520 5517 5513 5511 5508 5505 5501 5498 5495 5492 5489 5487 5484 5481 5479 5475 5474 5471 5469 5468 5466 5467 5468 5468 5468 5469
5531 5529 5528 5540 5550 5544 5535 5532 5535 5525 5530 5526 5519 5503 5521 5510 5507 5503 5500 5498 5494 5490 5487 5484 5481 5479 5476 5473 5471 5468 5466 5463 5460 5457 5455 5454 5450 5449 5447 5447 5448 5448 5449 5450
5518 5508 5505 5525 5532 5524 5518 5505 5529 5512 5504 5503 5498 5486 5496 5491 5488 5483 5480 5477 5474 5472 5469 5466 5463 5460 5457 5454 5451 5449 5447 5444 5441 5438 5437 5435 5432 5429 5425 5425 5426 5427 5429 5430
5497 5485 5481 5509 5507 5505 5495 5503 5495 5488 5484 5481 5476 5472 5471 5470 5466 5464 5461 5458 5455 5453 5451 5448 5445 5441 5438 5436 5433 5430 5427 5425 5422 5419 5416 5413 5410 5407 5405 5404 5404 5405 5408 5410
5475 5467 5459 5491 5480 5477 5485 5475 5472 5467 5463 5459 5456 5453 5449 5447 5445 5444 5441 5439 5437 5433 5431 5429 5426 5423 5420 5417 5414 5411 5408 5405 5402 5399 5395 5392 5390 5387 5385 5384 5384 5384 5386 5390
5456 5448 5455 5456 5457 5453 5453 5455 5453 5449 5445 5440 5435 5432 5430 5427 5423 5421 5419 5417 5415 5413 5410 5407 5405 5402 5399 5396 5394 5391 5388 5384 5380 5377 5374 5370 5369 5368 5366 5364 5363 5364 5366 5369
5439 5435 5437 5437 5435 5433 5433 5432 5432 5428 5426 5421 5415 5413 5410 5407 5404 5401 5397 5396 5393 5390 5388 5386 5383 5380 5378 5375 5373 5370 5367 5363 5359 5357 5354 5350 5347 5346 5346 5345 5343 5343 5345 5348
5418 5418 5418 5416 5414 5414 5415 5415 5408 5407 5401 5397 5394 5392 5389 5386 5383 5380 5377 5374 5371 5368 5367 5364 5363 5360 5357 5354 5351 5348 5344 5341 5338 5336 5333 5330 5327 5325 5323 5323 5321 5321 5323 5326
5397 5400 5392 5393 5393 5389 5390 5388 5383 5381 5379 5376 5373 5370 5365 5363 5361 5358 5356 5354 5351 5349 5346 5343 5340 5337 5334 5330 5327 5324 5322 5318 5314 5312 5310 5307 5305 5304 5299 5300 5299 5299 5301 5305
5373 5374 5372 5369 5370 5367 5366 5364 5361 5360 5358 5353 5350 5346 5344 5342 5339 5337 5336 5334 5331 5328 5324 5319 5316 5312 5308 5304 5305 5303 5301 5296 5293 5288 5286 5283 5281 5279 5280 5276 5277 5278 5281 5284
5349 5347 5347 5347 5345 5346 5343 5341 5339 5335 5332 5330 5328 5327 5326 5324 5321 5318 5316 5313 5309 5305 5300 5296 5292 5288 5283 5282 5281 5279 5276 5272 5269 5264 5260 5257 5255 5254 5254 5256 5257 5259 5259 5265
5330 5328 5325 5323 5321 5320 5320 5319 5318 5315 5313 5312 5310 5308 5306 5304 5301 5299 5295 5291 5286 5282 5277 5274 5272 5267 5263 5260 5257 5253 5250 5246 5241 5237 5235 5232 5230 5230 5230 5232 5235 5240 5241 5244
5309 5307 5306 5304 5303 5302 5300 5299 5297 5295 5292 5290 5289 5287 5285 5283 5280 5277 5274 5271 5267 5263 5257 5253 5250 5245 5239 5234 5231 5227 5223 5218 5214 5211 5210 5208 5207 5207 5209 5211 5214 5218 5223 5227
5290 5289 5288 5286 5285 5284 5282 5280 5277 5275 5274 5272 5270 5268 5267 5264 5261 5258 5255 5252 5249 5244 5238 5234 5229 5222 5215 5209 5205 5201 5197 5195 5191 5189 5188 5186 5186 5186 5188 5191 5194 5199 5204 5208
5275 5273 5271 5270 5269 5267 5266 5264 5263 5261 5259 5257 5255 5253 5250 5247 5244 5240 5237 5233 5229 5224 5217 5213 5206 5198 5191 5185 5181 5179 5176 5173 5170 5168 5166 5165 5165 5166 5168 5171 5175 5180 5185 5191
5259 5257 5255 5254 5254 5252 5250 5248 5247 5245 5244 5242 5240 5238 5235 5231 5227 5223 5219 5213 5208 5202 5195 5190 5183 5177 5170 5165 5161 5159 5156 5153 5152 5150 5147 5146 5146 5147 5151 5154 5158 5163 5169 5175
5245 5243 5241 5240 5239 5238 5236 5235 5234 5233 5231 5229 5226 5223 5220 5215 5211 5206 5200 5193 5188 5181 5175 5169 5163 5157 5152 5148 5144 5140 5137 5134 5131 5130 5129 5129 5131 5133 5135 5139 5143 5149 5154 5161
5232 5230 5229 5228 5227 5226 5225 5224 5222 5220 5218 5215 5212 5208 5203 5198 5193 5188 5181 5174 5168 5162 5157 5152 5145 5140 5137 5130 5127 5125 5119 5116 5115 5114 5114 5114 5115 5117 5121 5126 5131 5136 5142 5148
5221 5219 5218 5217 5216 5214 5213 5212 5210 5207 5204 5200 5196 5191 5187 5182 5176 5170 5164 5158 5151 5146 5142 5137 5131 5126 5121 5115 5113 5108 5104 5102 5101 5100 5100 5100 5101 5103 5108 5114 5119 5124 5131 5138
5209 5208 5207 5206 5205 5203 5201 5199 5197 5193 5189 5185 5181 5177 5172 5166 5161 5155 5149 5144 5139 5133 5129 5124 5119 5113 5107 5102 5098 5095 5092 5090 5089 5088 5088 5089 5090 5093 5098 5104 5109 5115 5121 5129
5198 5197 5196 5195 5193 5191 5189 5187 5183 5180 5176 5172 5168 5163 5158 5153 5148 5143 5137 5131 5126 5122 5117 5113 5106 5100 5094 5090 5086 5084 5082 5081 5079 5079 5079 5080 5082 5086 5091 5096 5102 5107 5114 5123
5186 5185 5184 5183 5181 5179 5177 5174 5171 5167 5164 5160 5156 5152 5147 5142 5137 5131 5127 5121 5116 5112 5106 5102 5096 5090 5084 5080 5078 5076 5074 5073 5072 5072 5073 5074 5077 5080 5085 5090 5096 5102 5109 5118
5174 5173 5172 5170 5169 5167 5164 5162 5160 5157 5153 5150 5146 5141 5137 5132 5127 5122 5117 5112 5108 5103 5098 5093 5086 5081 5076 5073 5071 5070 5069 5068 5068 5068 5069 5071 5074 5078 5082 5086 5092 5098 5106 5116
5161 5160 5159 5158 5157 5155 5153 5151 5149 5147 5143 5140 5136 5132 5127 5123 5118 5114 5109 5104 5100 5095 5090 5084 5079 5074 5071 5069 5067 5066 5066 5066 5066 5067 5069 5070 5073 5076 5080 5085 5091 5098 5106 5116